"Pseudo-MPEC" for P110LIC

Created 2020 May 27 1:07:18 UT using Find_Orb

Click here for an explanation of pseudo-MPECs

 
 Astrometry: 
     P110LIC  C2020 05 21W*Xwxce^WX.qO8Zm5SJ)`NPqriHtnQP5.#hqiL)G4Q'4xg'QPyItF51
     P110LIC  C2020 05 21GwhRMHg[LU,o[5pJiGQWmxGSxYVrZ-:2Z=SoCcV8DEbnidyFdmy@F51
     P110LIC  C2020 05 21n%tl8*r83^LPkBsTReSwMG@k!gAstrometryUnfvEJ/7.'cFnGsxF51
     P110LIC  C2020 05 218oqG!6R!s/:?JZogYsPp'1Y(ZU$L$Ps%@Mredacted;W^O*H+xAVF51
     P110LIC  C2020 05 25XjC7cMaD^tLdT[C[_sTm(vR1ZTYOr7?oclick)(BD[?-EMhB.(o=F52
     P110LIC  C2020 05 25FcyvodWIjxS[hereqSEcYfor\@%//rkqi7Zh4ORER25*ep!h5TgRF52
     P110LIC  C2020 05 25hG4.w=(o.^442YpEHUd0R-es_S@saGqY)@A)YAr9/6LB`qD;5=LhF52
     P110LIC  C2020 05 26.31907 16 37 30.61 -06 07 53.4    ~5Q8M       VNEOCPI52
     P110LIC  C2020 05 26.32291 16 37 29.47 -06 07 52.9    ~5Q8M       VNEOCPI52
     P110LIC  C2020 05 26.32899 16 37 27.85 -06 07 52.9    ~5Q8M 20.8 GVNEOCPI52
     P110LIC  C2020 05 26.33282 16 37 26.76 -06 07 53.2    ~5Q8M       VNEOCPI52
     P110LIC !C2020 05 26Jkadx\]9].rf)nJbiBUS2'OrRthh7n0a9KK7-cPjK#1.K[pnWGC-673
     P110LIC !C2020 05 26wo`explanationK](b+8#Dc)5KF@oqwH;PLVooeX@`(bx+`;hvf4673

Station data:
(673) Table Mountain Observatory, Wrightwood  (N34.381488 W117.682170)
   US/California.  Observer W. M. Owen Jr. 0.61-m f/16 reflector + CCD.
(F51) Pan-STARRS 1, Haleakala  (N20.707235 W156.255910)  US/Hawaii.
   Observers N. Primak, A. Schultz, S. Watters, J. Thiel, T. Goggia. Measurer
   PS1 Science Consortium. 1.8-m Ritchey-Chrétien + CCD.
(F52) Pan-STARRS 2, Haleakala  (N20.707384 W156.255910)  US/Hawaii. 1.8-m
   Ritchey-Chrétien + CCD.
(I52) Steward Observatory, Mt. Lemmon Station  (N32.442547 W110.788920)
   US/Arizona.  Observers T. A. Pruyne, B. M. Africano, E. J. Christensen, G.
   A. Farneth, D. C. Fuls, A. R. Gibbs, A. D. Grauer, H. Gröller, J. A.
   Johnson, R. A. Kowalski, S. M. Larson, G. J. Leonard, D. Rankin, R. L.
   Seaman, F. C. Shelly. 1.0-m reflector + CCD.

Orbital elements:  P110LIC
   Perihelion 2020 Sep 15.585001 +/- 0.521 TT = 14:02:24 (JD 2459108.085001)
Epoch 2020 May 26.0 TT = JDT 2458995.5   Earth MOID: 0.0431   Ve: 0.0772
M 236.85051310 +/- 0.8              Me: 0.0520                AutoNEOCP
n   1.09383564 +/- 0.0025           Peri.  325.17929 +/- 0.28
a   0.93289908 +/- 0.00142          Node    83.14987 +/- 0.25
e   0.6374905 +/- 0.00805           Incl.   15.32476 +/- 0.37
P   0.90/329.11d           H 22.0   G  0.15   U  8.7  
q 0.33818471 +/- 0.00699    Q 1.52761346 +/- 0.00981
From 13 observations 2020 May 21-26; mean residual 0".27
Residuals in arcseconds: 
200521 F51  .04-  .02-    200525 F52  .36-  .12-    200526 I52  .09-  .44-    
200521 F51  .07+  .01+    200525 F52  .21+  .07+    200526 673  .06+  .38+    
200521 F51  .21-  .04-    200526 I52  .19+  .58-    200526 673  .04-  .29-    
200521 F51  .18+  .06+    200526 I52  .86-  .09-    
200525 F52  .13+  .05-    200526 I52  .25+  .12-    

Ephemerides (geocentric):
Date (UTC) HH   RA              Dec         delta   r     elong  mag " sig PA
---- -- -- --  -------------   -----------  ------ ------ -----  --- ---- ---
2020 05 27 01  16 34 12.760   -06 07 40.39  .40970 1.4119 164.2 21.5 .204 153
2020 05 27 02  16 34 01.231   -06 07 40.68  .40948 1.4117 164.2 21.5 .228 154
2020 05 27 03  16 33 49.690   -06 07 41.00  .40926 1.4116 164.3 21.5 .253 155
2020 05 27 04  16 33 38.136   -06 07 41.35  .40904 1.4114 164.3 21.5 .278 155
2020 05 27 05  16 33 26.569   -06 07 41.72  .40882 1.4112 164.3 21.5 .304 156
2020 05 27 06  16 33 14.988   -06 07 42.12  .40860 1.4110 164.3 21.5 .329 156
2020 05 27 07  16 33 03.395   -06 07 42.55  .40838 1.4108 164.3 21.5 .356 156
2020 05 27 08  16 32 51.788   -06 07 43.01  .40816 1.4106 164.3 21.5 .383 157
2020 05 27 09  16 32 40.169   -06 07 43.49  .40795 1.4104 164.3 21.5 .410 157
2020 05 27 10  16 32 28.537   -06 07 44.00  .40773 1.4103 164.4 21.5 .437 157
2020 05 27 11  16 32 16.891   -06 07 44.53  .40752 1.4101 164.4 21.5 .465 157
2020 05 27 12  16 32 05.233   -06 07 45.10  .40730 1.4099 164.4 21.5 .494 157
2020 05 27 13  16 31 53.562   -06 07 45.69  .40708 1.4097 164.4 21.5 .523 157
2020 05 27 14  16 31 41.878   -06 07 46.31  .40687 1.4095 164.4 21.5 .552 157
2020 05 27 15  16 31 30.182   -06 07 46.95  .40666 1.4093 164.4 21.5 .582 157
2020 05 27 16  16 31 18.472   -06 07 47.63  .40644 1.4091 164.4 21.5 .612 157
2020 05 27 17  16 31 06.750   -06 07 48.33  .40623 1.4089 164.4 21.5 .643 157
2020 05 27 18  16 30 55.015   -06 07 49.06  .40602 1.4088 164.5 21.5 .674 157
2020 05 27 19  16 30 43.267   -06 07 49.81  .40581 1.4086 164.5 21.5 .706 157
2020 05 27 20  16 30 31.507   -06 07 50.59  .40559 1.4084 164.5 21.5 .738 157
2020 05 27 21  16 30 19.734   -06 07 51.40  .40538 1.4082 164.5 21.5 .770 157
2020 05 27 22  16 30 07.948   -06 07 52.24  .40517 1.4080 164.5 21.5 .803 157
2020 05 27 23  16 29 56.150   -06 07 53.11  .40496 1.4078 164.5 21.5 .836 157
2020 05 28 00  16 29 44.339   -06 07 54.00  .40475 1.4076 164.5 21.5 .870 157
2020 05 28 01  16 29 32.516   -06 07 54.92  .40455 1.4074 164.5 21.5 .904 157
2020 05 28 02  16 29 20.680   -06 07 55.87  .40434 1.4073 164.5 21.5 .939 156
2020 05 28 03  16 29 08.831   -06 07 56.84  .40413 1.4071 164.5 21.5 .974 156
2020 05 28 04  16 28 56.970   -06 07 57.84  .40392 1.4069 164.5 21.5 1.01 156
2020 05 28 05  16 28 45.097   -06 07 58.87  .40372 1.4067 164.5 21.5 1.05 156
2020 05 28 06  16 28 33.211   -06 07 59.93  .40351 1.4065 164.5 21.5 1.08 156
2020 05 28 07  16 28 21.313   -06 08 01.01  .40330 1.4063 164.5 21.5 1.12 156
2020 05 28 08  16 28 09.403   -06 08 02.13  .40310 1.4061 164.5 21.5 1.16 156
2020 05 28 09  16 27 57.480   -06 08 03.27  .40289 1.4059 164.5 21.5 1.20 156
2020 05 28 10  16 27 45.545   -06 08 04.43  .40269 1.4057 164.5 21.5 1.23 156
2020 05 28 11  16 27 33.598   -06 08 05.63  .40249 1.4055 164.5 21.5 1.27 155
2020 05 28 12  16 27 21.638   -06 08 06.85  .40228 1.4054 164.6 21.5 1.31 155
2020 05 28 13  16 27 09.666   -06 08 08.10  .40208 1.4052 164.6 21.5 1.35 155
2020 05 28 14  16 26 57.682   -06 08 09.38  .40188 1.4050 164.6 21.5 1.39 155
2020 05 28 15  16 26 45.686   -06 08 10.69  .40168 1.4048 164.6 21.5 1.43 155
2020 05 28 16  16 26 33.678   -06 08 12.02  .40148 1.4046 164.6 21.5 1.47 155
2020 05 28 17  16 26 21.658   -06 08 13.38  .40128 1.4044 164.5 21.5 1.52 155
2020 05 28 18  16 26 09.625   -06 08 14.77  .40108 1.4042 164.5 21.5 1.56 155
2020 05 28 19  16 25 57.581   -06 08 16.19  .40088 1.4040 164.5 21.5 1.60 154
2020 05 28 20  16 25 45.525   -06 08 17.63  .40068 1.4038 164.5 21.5 1.65 154
2020 05 28 21  16 25 33.456   -06 08 19.11  .40048 1.4036 164.5 21.5 1.69 154
2020 05 28 22  16 25 21.376   -06 08 20.61  .40028 1.4034 164.5 21.5 1.73 154
2020 05 28 23  16 25 09.284   -06 08 22.13  .40009 1.4032 164.5 21.5 1.78 154
2020 05 29 00  16 24 57.180   -06 08 23.69  .39989 1.4031 164.5 21.5 1.82 154